User: anonymous   Login
Location: Caltech
(34.1382°N, 118.1253°W)
Time: 15:25:00
(UTC-08:00)
Language:

IDEFIX/ARIANE 42P - Orbit

View from above orbital plane
View from above orbital plane
View from above satellite
View from above satellite

Ground track
Ground track

The orbit data is extracted from the following two-line orbital elements,

1 27422U 02021B   17346.46678376 -.00000014  00000-0  10393-4 0  9996
2 27422  98.2405 336.9759 0013401  70.0331 290.2294 14.29259720812147
Epoch (UTC): 12 December 2017 11:12:10
Eccentricity: 0.0013401
inclination: 98.2405°
perigee height: 784 km
apogee height: 804 km
right ascension of ascending node: 336.9759°
argument of perigee: 70.0331°
revolutions per day: 14.29259720
mean anomaly at epoch: 290.2294°
orbit number at epoch: 81214

The dashed part of the orbit path shows where the satellite is in the earth's shadow,  

DLR